Theta_e
345 346 346 347 347 348 348 349 349 349 349 349 350 350 350 350 350 350 350 350 348 346 347 347 345 344 346 344 344 343 338 340 335 331 335 328 324 324 323 323 323 324 325 325 327 328 330 331 332 333 334 337 338 340 341 341 342 342 343 343 343 343 343 343 343 343 343 343 343 343 343 342 342 342 342 343 344 343 340 337 336 336 337 338 338
345 346 346 347 348 350 350 349 349 350 350 349 350 350 350 350 350 351 350 349 347 346 347 347 345 344 344 343 343 342 338 337 332 330 330 324 321 323 322 324 324 325 326 327 329 330 331 332 333 335 336 338 340 341 341 342 342 342 343 342 343 343 343 343 343 344 344 344 344 344 344 343 342 342 343 345 343 338 335 335 336 337 337 338 338
345 347 348 349 349 351 350 350 350 349 350 349 350 350 350 350 349 348 349 350 347 345 346 346 344 343 343 342 340 341 338 338 336 335 334 326 323 325 324 325 325 326 327 329 331 332 332 333 334 336 337 339 340 340 341 341 342 342 342 343 343 344 345 345 345 345 345 346 346 346 346 345 343 343 345 344 338 333 335 336 337 338 337 337 338
345 347 349 350 350 351 350 350 350 350 351 351 350 351 350 350 347 347 348 349 346 344 345 344 343 343 342 342 341 340 339 339 339 337 336 329 324 325 326 325 326 327 330 331 332 332 333 333 335 336 337 338 339 340 341 341 341 342 343 344 345 345 345 346 346 346 346 347 347 348 348 346 344 344 346 341 334 333 336 338 339 339 338 338 338
343 346 348 350 351 350 350 351 351 351 351 350 351 351 351 350 349 348 348 347 344 343 343 341 343 343 342 341 341 342 341 341 340 338 339 336 330 326 325 327 327 329 331 332 333 333 333 334 335 337 337 338 339 340 341 342 342 343 344 345 346 346 346 346 346 346 347 347 347 348 348 348 345 345 345 337 332 336 339 340 340 339 338 337 335
343 345 349 351 351 350 351 352 351 351 350 350 351 351 351 351 351 349 348 347 344 343 342 341 341 342 342 342 341 342 342 343 343 342 343 343 338 331 329 329 328 330 332 333 333 333 334 334 336 337 338 338 339 340 342 344 344 345 345 346 346 346 346 346 346 347 347 348 348 348 349 348 345 346 343 333 333 339 342 341 340 339 336 331 328
343 344 348 351 350 351 352 350 348 350 351 349 350 351 351 351 352 350 349 348 345 343 342 341 342 342 342 342 342 343 343 344 344 344 345 344 343 340 336 334 332 331 332 333 334 334 335 335 335 336 338 339 339 340 342 344 344 345 345 345 346 345 345 346 346 347 347 348 348 348 348 346 345 345 339 331 337 343 342 341 340 339 333 325 324
343 343 347 351 350 351 351 346 344 349 349 349 350 350 351 351 351 351 350 350 346 344 343 341 341 341 342 342 342 343 343 344 344 345 345 345 346 344 341 339 337 335 334 334 334 336 337 337 336 336 337 337 338 339 341 342 343 344 345 344 345 345 345 345 345 347 347 348 348 347 346 345 346 342 333 333 342 344 341 340 341 340 331 325 328
343 342 345 350 350 351 352 345 344 347 345 347 350 350 351 350 350 350 350 350 348 345 344 341 339 339 341 341 342 343 344 344 344 345 345 345 346 345 344 342 340 339 338 337 336 335 337 339 339 338 338 338 339 340 340 341 341 342 343 343 344 344 344 343 344 346 347 348 348 346 345 345 343 336 332 339 345 344 341 339 341 340 330 327 336
341 340 343 349 349 350 351 344 343 344 342 346 349 349 351 351 351 349 347 350 349 347 345 343 339 338 339 340 342 343 343 344 343 343 345 345 345 345 346 345 342 341 340 340 339 337 336 337 339 339 340 340 340 341 341 341 341 342 342 342 342 343 343 343 345 346 347 348 348 346 345 342 336 332 336 344 346 344 343 340 341 340 330 330 339
341 339 341 346 348 349 347 342 344 344 343 348 350 349 349 350 351 348 348 350 349 348 347 344 341 338 339 340 341 342 343 344 343 343 345 345 345 345 345 345 345 343 340 340 340 340 339 338 338 339 338 339 339 340 341 341 342 342 342 342 342 342 343 343 345 345 346 348 348 347 343 337 332 335 341 346 346 345 345 343 342 341 332 329 339
339 339 339 342 346 348 346 342 347 346 343 349 351 349 347 346 346 344 348 351 348 348 347 344 342 340 340 340 341 342 342 342 342 343 344 344 344 345 345 345 346 345 344 342 341 342 341 339 339 340 339 340 340 340 341 341 342 342 342 342 342 342 342 343 345 345 346 347 348 346 340 335 334 339 344 346 346 346 346 345 344 343 335 327 334
338 339 339 339 343 347 344 342 347 347 344 347 347 345 345 345 344 344 348 350 349 349 348 347 344 341 341 341 340 342 341 341 341 341 342 343 343 344 344 345 345 346 346 344 341 342 343 341 340 339 339 340 340 341 341 341 342 342 342 342 342 342 342 343 344 344 346 347 348 345 338 335 337 342 346 345 345 346 346 347 345 344 340 329 327
339 341 341 342 345 347 346 344 346 345 344 345 343 342 342 341 343 346 349 350 349 349 348 347 346 343 342 342 341 341 341 340 340 340 341 341 342 343 344 344 345 346 346 346 344 344 345 345 344 342 340 340 340 340 341 342 343 343 343 343 343 343 343 343 344 345 347 347 348 345 339 337 339 344 345 344 345 346 345 347 347 345 345 337 327
341 343 344 345 345 346 348 348 346 344 345 346 345 344 341 340 343 343 346 349 349 349 349 347 347 347 344 343 342 341 340 341 340 340 340 341 341 342 343 343 344 346 346 346 347 346 346 345 345 342 340 340 341 341 343 344 344 344 345 345 345 344 344 344 344 345 347 347 347 345 340 338 340 343 344 344 344 345 345 346 347 347 346 344 335
345 344 346 346 344 344 348 349 346 343 345 345 346 348 346 346 347 342 342 348 351 351 349 348 348 348 346 346 345 342 341 342 342 341 340 340 341 341 342 342 343 346 345 345 347 347 346 346 345 343 341 342 342 342 345 348 346 346 346 347 347 345 344 344 345 346 348 347 345 343 341 340 341 342 343 344 345 345 346 346 347 348 347 346 343
345 343 344 344 343 344 345 346 346 343 345 347 349 350 348 348 348 344 344 347 350 352 351 350 350 348 346 348 346 344 345 345 343 343 342 341 340 341 343 342 342 345 345 346 347 347 347 347 347 347 346 347 347 347 349 351 350 347 348 347 346 346 345 345 345 347 348 346 342 340 340 341 342 342 342 344 345 345 346 346 347 348 348 347 345
344 341 342 343 343 344 343 345 348 346 344 346 348 348 349 351 350 349 351 348 346 350 351 350 351 350 348 349 348 346 348 347 345 346 346 344 343 342 343 344 344 343 345 346 346 347 348 348 348 349 349 350 352 351 351 353 351 348 347 348 347 346 345 346 346 347 348 343 339 339 341 343 343 343 343 344 345 346 346 346 347 347 348 348 347
347 344 341 343 343 343 343 343 348 350 347 345 347 349 351 353 350 349 352 347 342 348 351 351 352 352 350 350 350 349 348 347 347 346 347 346 345 344 343 344 344 343 344 346 345 347 349 349 349 348 349 351 352 353 352 354 353 349 348 348 347 347 347 347 347 347 346 341 340 342 343 343 344 343 343 344 345 346 346 346 347 348 348 348 348
345 344 341 342 341 340 341 342 345 349 347 346 350 351 352 351 347 345 346 343 343 347 349 350 351 351 351 350 349 349 348 347 348 347 346 346 345 344 343 344 344 343 344 345 345 347 348 350 350 348 349 351 353 353 353 354 354 352 351 348 347 348 347 347 347 347 344 341 342 344 344 344 344 344 344 344 346 346 346 347 347 347 348 348 348
340 341 341 341 341 340 341 341 342 346 347 350 352 350 349 347 343 345 346 345 346 345 344 348 349 349 352 351 349 349 348 348 348 349 349 348 346 344 343 345 346 345 346 346 346 347 347 348 349 349 350 352 353 353 354 354 354 354 353 349 348 348 348 347 347 346 344 342 343 343 344 344 344 344 344 345 346 346 346 347 347 347 347 348 349
344 342 340 341 341 341 342 342 344 349 350 350 350 348 345 344 344 347 346 345 346 345 346 349 350 349 350 351 351 350 349 349 348 349 350 349 348 345 344 346 346 346 346 347 347 346 346 348 348 349 350 352 353 354 354 355 353 351 350 349 348 348 348 348 348 347 346 344 344 344 345 345 344 344 345 345 346 346 346 346 347 347 348 348 348
350 348 344 343 343 341 343 347 350 351 348 346 349 350 350 350 350 348 344 344 347 348 348 349 350 350 350 350 352 350 350 351 349 350 350 349 347 346 345 344 344 345 346 347 348 347 347 348 347 349 351 351 353 354 354 355 354 351 349 348 349 349 349 349 349 349 349 348 347 347 346 346 345 344 344 345 345 345 346 346 347 347 348 348 348
350 351 349 348 347 342 343 348 349 348 348 348 350 351 352 353 353 350 347 346 347 348 348 350 352 352 351 350 351 350 349 349 349 349 350 350 350 348 346 345 346 346 346 347 349 348 348 349 348 350 352 352 354 355 355 355 355 353 351 348 347 348 348 349 349 350 350 351 350 349 347 346 346 345 344 344 345 345 346 346 347 347 347 348 348
348 350 349 350 349 344 342 346 346 344 346 346 346 346 347 349 350 350 351 350 350 348 348 350 352 352 351 351 351 350 349 349 350 349 348 350 351 351 350 349 349 349 348 349 351 350 349 350 350 350 352 353 354 356 356 354 353 353 351 349 349 349 349 348 349 349 349 350 350 349 348 347 346 345 345 345 345 346 346 347 347 347 347 348 349
349 350 350 351 351 350 345 345 344 342 342 342 343 343 343 345 347 348 351 353 350 348 348 351 352 352 352 352 352 351 351 351 351 350 350 351 351 352 352 353 352 350 349 350 350 351 351 350 351 350 352 354 353 355 355 353 353 352 349 350 353 353 350 348 348 348 348 347 348 349 349 348 347 346 346 346 346 346 347 347 348 347 347 347 349
352 351 350 349 351 352 348 347 346 344 342 341 342 344 342 341 344 344 347 351 349 348 350 352 353 354 354 353 353 353 352 352 352 351 351 351 352 352 354 354 354 352 350 349 350 351 351 351 350 350 353 355 354 355 354 353 354 352 348 351 355 354 350 348 348 347 347 346 347 349 350 349 349 348 348 348 347 347 347 347 348 347 347 347 349
352 352 350 347 349 351 350 350 349 345 344 342 342 345 344 342 343 342 344 350 353 350 351 353 354 354 353 353 354 354 353 353 353 352 352 353 354 354 354 355 356 355 352 349 349 351 351 352 351 351 354 355 354 355 354 354 355 352 350 354 356 355 352 349 348 347 347 347 347 348 349 349 350 350 349 349 348 348 348 348 347 347 347 348 349
352 351 352 350 349 349 351 352 351 348 347 346 345 345 343 343 345 344 345 350 353 352 351 352 354 354 353 353 353 353 354 352 348 348 350 353 354 354 354 355 356 357 355 351 350 352 353 353 352 352 354 355 355 355 354 355 355 351 352 355 356 356 353 348 348 348 347 347 347 347 347 348 348 348 348 348 347 347 346 346 346 347 347 348 348
351 351 352 352 350 348 348 350 351 350 350 351 350 347 344 346 348 348 348 348 348 350 351 352 353 353 353 353 352 352 351 348 343 343 345 348 352 354 353 354 356 357 357 355 353 352 352 352 353 353 354 355 355 354 353 354 354 352 352 355 356 354 349 347 348 348 347 346 346 345 345 345 346 346 346 345 345 345 344 344 345 347 348 348 348
351 351 351 351 352 349 347 348 350 351 351 352 351 348 346 350 354 354 353 352 351 350 352 353 353 354 353 351 349 347 345 343 341 341 343 345 348 351 352 354 355 356 357 357 354 352 352 352 353 352 353 354 354 354 354 354 354 352 351 354 355 351 348 351 351 349 347 345 345 345 344 344 344 343 343 343 343 343 343 343 345 347 348 347 347
350 351 350 350 351 351 350 351 352 352 353 354 353 352 351 352 354 354 354 356 355 354 354 354 353 352 352 348 344 342 342 342 343 344 345 346 347 349 351 353 355 356 357 357 355 354 353 352 353 353 353 354 354 355 355 354 354 353 352 353 354 351 352 354 353 351 349 347 346 346 345 344 344 343 343 343 343 343 343 344 344 346 347 347 347
349 350 350 350 350 350 351 351 352 353 354 353 352 353 355 352 351 352 353 354 354 354 356 355 352 349 346 343 343 344 344 344 346 346 347 348 350 352 352 352 354 356 356 357 357 356 355 354 353 353 353 353 354 354 354 354 353 354 354 354 354 354 354 354 353 352 351 349 347 346 345 345 344 344 344 343 344 344 344 345 345 345 346 347 347
349 349 349 349 350 350 351 352 353 354 355 354 351 352 355 355 354 354 354 354 353 352 351 352 352 349 346 344 346 347 348 348 348 348 350 351 352 352 352 352 353 355 355 357 357 356 356 355 352 351 352 354 354 353 354 353 353 354 354 354 354 353 353 353 353 352 351 350 347 346 345 345 344 344 344 344 344 345 345 346 346 346 346 346 347
347 348 348 349 350 351 352 352 353 353 352 352 352 354 356 356 355 355 353 352 351 349 348 349 348 348 349 349 348 348 350 349 349 349 350 350 348 347 349 351 353 353 353 355 356 356 356 355 352 351 352 353 352 353 353 353 353 353 353 353 353 352 352 352 352 352 351 348 345 344 344 345 345 345 346 345 346 346 346 346 346 347 347 347 347
345 347 348 349 350 351 351 351 352 351 348 347 349 351 354 355 354 353 351 349 348 348 349 349 346 345 348 349 349 349 349 349 349 350 349 348 346 345 345 348 352 352 352 353 356 356 355 354 354 353 353 353 352 353 352 352 352 352 353 353 352 352 352 351 351 351 349 345 344 345 345 346 346 346 346 346 346 346 346 346 347 347 347 347 348
344 345 347 349 350 350 350 350 351 352 351 349 348 348 352 355 353 350 350 350 349 348 349 348 346 346 347 348 349 349 349 349 350 350 350 349 348 347 346 347 350 352 353 354 355 355 353 353 353 352 351 352 352 351 351 351 351 351 352 352 351 351 350 349 349 349 347 347 348 348 347 347 347 346 345 345 345 345 346 347 347 347 347 347 347
345 345 346 347 348 349 349 350 351 353 354 353 352 350 351 353 351 349 349 350 349 348 348 348 347 347 349 349 349 349 349 349 349 349 349 349 348 348 348 348 350 352 353 354 354 353 351 350 351 350 349 350 350 349 349 349 349 349 350 349 347 347 346 345 346 346 347 347 347 347 347 346 345 344 344 344 345 346 346 346 347 346 346 346 346
345 345 345 346 347 347 348 350 351 351 352 352 351 350 349 349 348 348 348 349 350 351 351 351 349 348 349 348 348 348 348 348 348 348 348 348 349 348 349 349 351 352 353 352 352 350 348 348 349 349 350 350 349 349 349 349 348 346 345 342 342 343 343 343 343 343 343 343 344 345 345 343 342 342 343 343 343 343 344 344 345 344 344 344 344
347 345 344 344 346 348 349 350 350 348 348 350 350 348 348 348 347 347 347 348 351 352 351 351 350 347 347 346 345 345 345 346 346 347 349 351 351 351 350 350 350 350 350 350 349 347 347 349 349 348 349 349 349 348 347 345 343 341 339 339 341 342 341 342 342 342 342 341 342 343 342 341 341 341 342 342 341 340 340 340 340 341 341 341 341
346 346 346 345 347 349 350 348 344 344 348 349 349 349 348 347 347 347 347 347 349 350 349 349 349 348 347 346 345 344 344 344 345 348 351 352 351 351 351 350 350 349 349 348 348 348 348 348 348 347 347 346 345 344 342 340 339 338 338 339 340 341 341 343 342 342 341 338 338 340 341 339 338 338 340 340 339 337 337 336 337 337 337 338 338
341 343 344 346 347 350 351 347 342 342 346 347 348 347 346 346 346 346 347 348 348 349 350 350 349 349 348 347 346 346 345 346 347 349 350 350 350 351 350 350 350 350 349 347 347 347 347 347 347 346 344 341 338 337 336 336 336 337 338 338 339 340 340 339 339 337 336 334 335 338 338 335 334 336 338 338 336 336 335 334 334 335 335 336 336
340 341 342 344 346 349 351 349 345 343 342 344 346 345 344 345 345 345 348 350 350 349 350 351 350 349 348 347 347 347 347 348 349 350 349 350 350 349 349 349 349 349 348 347 347 347 346 346 344 342 338 335 333 332 332 332 333 335 337 337 338 338 337 335 335 333 332 332 334 336 334 329 328 333 336 335 335 334 332 331 333 334 335 335 335
343 343 343 345 347 348 349 349 348 346 344 345 346 345 344 345 345 347 350 350 349 350 350 351 350 348 347 347 347 347 347 348 348 348 347 346 346 346 346 346 346 347 345 344 344 343 341 339 336 334 332 331 330 329 329 328 330 333 335 335 336 336 335 334 332 330 328 328 330 333 332 326 325 329 332 333 333 329 324 327 331 334 334 334 334
346 346 347 348 349 349 349 349 348 348 347 346 346 345 345 345 346 348 349 349 349 349 350 349 348 348 347 347 347 346 346 347 346 345 344 343 344 343 342 341 341 341 339 337 337 335 333 331 330 329 329 328 328 328 328 328 328 330 332 334 335 336 334 332 330 326 324 324 325 330 331 325 323 326 327 330 332 325 318 320 328 332 334 332 332
349 349 350 349 349 348 348 348 348 348 347 347 348 347 348 347 348 349 349 349 349 349 348 348 347 347 347 346 345 344 343 344 343 343 342 342 342 341 339 338 338 335 333 332 332 331 330 329 329 328 328 327 326 326 326 327 327 328 329 330 331 332 332 331 329 325 322 320 320 326 329 325 322 324 324 326 329 326 318 316 320 327 332 332 330
349 350 349 348 348 348 349 349 349 349 348 348 349 349 349 349 349 349 348 348 348 348 347 346 345 345 345 344 343 342 341 340 339 338 337 337 337 336 334 334 333 331 330 330 330 330 329 329 328 327 326 325 324 324 324 325 326 327 328 328 328 328 328 329 330 328 324 321 317 320 327 326 322 322 322 322 327 327 323 317 313 316 325 331 331
349 349 348 348 349 348 349 350 350 349 348 348 348 347 346 346 346 347 347 347 346 345 344 343 342 342 342 341 340 339 337 335 334 332 331 331 331 331 331 331 330 330 330 330 329 329 328 328 327 325 324 323 323 323 324 324 325 326 327 328 327 328 328 328 328 328 326 324 320 319 324 326 324 323 322 321 325 328 326 322 315 310 314 322 329
350 348 347 348 349 349 350 349 349 348 347 345 344 343 343 344 344 345 345 344 343 342 339 338 337 337 336 335 334 333 331 330 330 330 329 329 329 330 330 330 330 329 329 328 328 327 327 327 326 324 324 323 323 324 324 324 325 324 324 325 326 326 327 326 326 327 326 325 323 320 322 325 325 324 323 321 323 327 326 323 321 316 313 314 319
349 348 347 348 349 350 349 349 347 346 344 343 342 343 343 343 343 343 342 340 339 337 335 333 332 332 331 331 331 330 330 331 331 331 330 330 330 330 330 328 327 327 327 327 326 326 325 325 325 324 324 324 324 323 323 322 321 320 321 322 323 324 325 325 325 325 324 324 323 319 319 322 323 324 323 322 323 324 324 323 323 323 322 318 315
349 349 349 349 350 349 348 346 344 341 340 341 341 341 339 338 338 338 338 336 334 333 332 331 330 330 329 330 330 330 331 331 331 330 330 330 329 328 327 326 325 326 326 326 325 325 325 325 325 325 324 324 322 320 318 317 317 316 316 317 318 320 322 322 322 323 323 323 321 317 315 317 320 322 322 321 323 323 322 323 324 325 325 323 321
Wind_Speed
12 11 11 11 11 10 8 8 8 8 8 8 7 8 8 8 8 9 8 7 6 6 5 4 4 4 4 3 4 4 4 4 4 5 4 4 5 6 8 9 10 10 9 9 9 9 10 9 9 8 8 7 7 7 7 6 6 5 5 5 5 4 4 5 6 7 9 10 11 12 13 14 15 15 16 16 17 17 17 16 16 17 17 18 20
12 12 11 11 10 9 8 8 8 8 7 7 7 7 7 7 8 7 7 8 7 6 6 5 5 4 5 4 4 4 4 6 6 7 6 6 7 8 9 10 9 9 9 9 9 9 9 8 8 7 7 7 6 6 6 5 5 4 4 4 4 5 5 7 8 9 10 11 12 14 15 15 16 16 16 16 17 17 16 16 17 18 19 20 20
12 12 11 10 9 8 8 8 7 7 7 6 6 7 7 7 8 8 8 8 7 7 6 6 6 6 6 6 6 5 5 7 7 6 6 6 8 8 9 9 9 9 9 9 9 8 8 8 7 6 6 6 5 5 4 4 4 3 3 4 4 5 6 8 9 10 12 13 14 15 16 16 16 15 15 16 17 16 16 17 19 20 20 20 19
13 12 10 9 8 8 8 7 7 6 6 6 6 6 7 6 8 10 10 8 7 7 7 6 7 6 7 6 6 6 6 7 7 6 6 6 8 8 8 8 8 9 9 9 8 7 7 6 6 5 4 4 4 3 3 2 2 3 3 4 5 6 7 9 10 12 13 14 15 16 17 17 16 15 16 16 16 16 17 19 19 20 19 19 18
14 12 10 8 8 8 7 6 6 6 5 6 6 6 6 6 7 8 8 8 8 7 6 6 7 6 6 6 7 7 7 7 7 6 7 6 8 8 7 7 8 8 9 8 7 6 5 5 4 4 3 3 2 2 2 2 2 3 3 4 6 7 8 10 11 13 14 16 17 17 18 17 15 15 16 16 16 16 18 19 20 19 18 18 18
13 13 10 7 7 7 6 5 5 6 5 5 5 5 6 6 6 6 7 7 7 7 6 6 6 6 5 6 6 6 6 6 6 6 6 6 9 10 9 8 7 7 7 7 5 4 4 4 3 2 2 1 1 2 2 2 2 3 4 5 6 8 9 11 12 14 16 17 18 18 17 16 14 15 16 15 15 17 19 20 19 19 18 18 18
13 12 10 7 6 6 5 4 4 5 3 3 4 5 5 6 6 7 6 7 7 6 6 5 5 5 5 5 4 5 5 5 5 5 5 6 8 10 10 9 7 6 5 4 3 3 3 3 2 2 1 0 1 1 2 3 3 4 5 6 8 9 10 12 14 15 17 17 18 18 16 14 14 15 15 14 15 17 19 19 19 19 19 19 18
12 11 9 6 5 4 3 3 3 3 2 2 3 4 4 4 5 7 6 7 6 6 5 4 4 4 4 4 4 4 3 3 3 2 2 3 4 6 8 8 7 5 3 2 2 1 1 1 1 2 2 2 2 3 4 4 5 6 7 8 9 10 11 13 15 16 16 17 17 16 14 12 13 14 13 13 14 17 19 19 19 20 20 19 18
13 11 8 5 4 4 2 3 2 1 2 1 2 2 4 4 4 5 6 7 6 5 5 3 3 3 3 4 3 3 3 2 2 1 1 2 2 2 4 4 5 5 3 2 1 1 1 1 1 2 2 3 4 5 6 7 8 8 9 10 10 11 13 14 15 16 16 16 16 14 13 12 13 13 12 11 14 17 18 19 20 21 21 19 18
13 12 9 5 3 3 2 2 2 2 3 1 1 1 2 3 4 3 4 5 5 5 4 3 2 2 3 3 2 2 2 1 1 1 1 1 2 2 1 2 4 5 4 4 3 3 3 3 4 4 4 5 6 7 8 8 9 10 10 11 12 13 14 14 15 16 15 15 15 13 13 12 12 11 10 11 14 17 19 20 21 22 21 19 18
13 12 9 5 2 1 2 2 1 2 2 1 1 2 2 1 3 3 4 4 4 4 4 3 1 1 1 1 1 1 1 0 1 1 1 1 1 2 2 3 4 5 4 5 5 5 6 6 7 8 8 8 9 9 10 11 11 12 12 13 14 14 14 15 16 15 14 14 13 12 12 11 10 10 9 11 15 18 19 21 23 23 22 20 18
12 10 9 6 4 3 3 3 1 2 3 1 1 3 4 2 1 1 4 4 3 3 3 3 1 1 1 1 1 1 1 1 1 2 2 2 2 2 2 3 3 4 5 5 6 6 8 9 9 10 11 12 12 12 13 13 14 14 14 15 15 15 15 15 15 14 13 12 12 11 11 10 9 8 8 11 15 18 20 22 23 24 23 21 18
10 9 8 7 5 4 4 4 2 2 3 3 4 5 5 3 2 2 3 4 2 2 3 3 2 2 2 3 3 2 2 2 2 3 3 3 3 3 3 3 3 4 4 5 7 7 8 10 12 12 13 14 14 13 14 14 14 15 15 15 14 13 13 13 14 13 12 11 10 10 9 8 8 7 8 11 14 17 19 21 23 24 24 22 19
9 8 7 6 5 4 4 4 3 3 3 3 4 4 4 3 3 3 3 3 3 3 3 2 2 3 2 4 4 4 3 3 4 4 4 4 4 4 4 4 4 3 4 5 6 6 7 9 11 12 12 12 13 13 13 14 14 14 14 14 13 12 12 13 13 12 11 10 10 9 8 8 7 6 8 11 13 16 18 20 22 23 24 23 21
8 7 6 5 6 6 4 3 3 3 3 3 2 3 4 3 3 4 3 3 3 3 3 2 3 4 4 4 4 3 4 4 4 5 5 5 5 5 5 5 5 4 5 5 4 5 6 7 9 10 10 11 11 11 12 12 13 13 13 14 14 14 14 14 13 12 11 10 9 9 8 7 7 7 9 11 13 15 17 18 21 22 23 23 22
7 6 5 5 6 6 5 3 3 4 3 2 2 1 3 2 3 4 3 3 3 3 3 3 4 4 4 5 5 4 4 3 4 5 5 6 6 6 6 6 6 5 6 6 5 5 6 7 9 11 11 11 11 12 11 11 13 13 14 14 14 15 14 14 13 12 10 9 9 9 8 7 8 8 9 11 13 14 15 17 19 21 22 23 23
7 6 6 6 6 7 6 4 3 4 3 2 2 2 2 2 3 4 2 3 3 3 3 3 3 4 4 5 5 4 4 5 6 5 5 6 6 6 6 7 7 6 6 6 5 6 6 6 8 10 11 11 11 12 10 10 12 13 14 14 14 14 14 14 12 11 10 9 9 9 8 8 9 9 9 11 12 14 15 16 17 19 20 21 22
7 7 7 7 7 7 6 4 3 4 4 3 3 2 1 1 3 2 1 3 3 2 3 3 3 4 4 4 4 4 6 7 7 6 6 6 7 7 7 7 8 7 6 6 6 6 6 7 9 9 9 9 9 10 9 9 12 13 13 13 13 13 13 12 11 10 10 9 8 7 7 8 9 9 10 11 12 13 14 14 15 17 18 19 20
7 8 8 8 8 7 6 5 4 3 5 4 3 2 2 2 3 2 2 4 3 2 3 3 4 4 4 3 4 5 6 6 7 7 8 7 7 8 8 7 8 8 7 7 7 6 6 7 8 9 9 9 9 9 9 8 12 13 11 11 13 12 11 10 10 9 9 8 7 6 7 8 9 9 10 11 12 13 14 13 14 15 16 17 18
8 9 9 8 8 7 6 6 5 5 5 4 3 3 3 4 5 4 4 4 3 3 4 4 5 5 4 5 5 5 6 6 6 8 9 9 9 9 8 8 8 9 8 8 7 7 7 7 8 9 9 9 9 9 8 8 9 11 10 11 11 11 10 10 10 9 8 8 7 7 8 9 10 10 11 12 13 13 14 14 14 15 15 16 17
9 9 9 8 8 7 7 6 6 5 5 3 4 5 5 5 5 4 4 4 4 5 5 5 6 6 5 6 7 7 7 7 8 8 8 9 10 10 10 9 9 8 7 8 8 8 8 8 8 9 8 8 10 9 8 7 6 7 9 11 11 10 10 9 9 9 9 9 9 10 10 11 11 11 12 12 13 14 14 15 15 15 15 16 16
8 8 9 8 8 7 6 6 5 5 6 6 6 6 5 5 5 4 5 5 5 5 5 6 6 7 7 7 8 8 8 8 8 8 8 9 10 12 11 10 10 10 9 8 9 9 9 8 9 9 7 8 9 8 7 7 6 6 9 11 11 10 10 10 10 9 10 11 12 13 13 13 12 12 12 13 14 15 16 16 16 15 16 16 16
7 8 8 8 8 8 6 6 6 6 7 6 5 5 4 4 5 6 6 5 6 5 5 6 7 7 7 7 8 8 8 8 8 9 9 10 11 12 12 11 12 11 10 9 9 9 9 8 8 7 7 8 8 7 7 7 9 11 11 11 11 11 11 11 11 10 11 12 13 14 14 14 14 13 13 14 15 16 17 17 16 16 16 16 16
8 8 8 8 8 8 7 7 7 7 7 6 6 6 6 5 6 6 6 6 6 6 6 5 6 7 7 7 8 8 9 9 9 9 9 10 11 12 12 12 12 11 10 9 9 9 8 8 7 6 7 8 7 8 8 7 10 13 12 11 12 12 12 12 12 12 13 14 14 14 14 14 14 14 14 15 16 17 17 17 17 17 17 17 16
8 8 8 7 8 8 7 7 7 7 7 7 7 7 7 7 7 6 6 6 6 6 6 6 6 7 7 7 8 9 9 9 9 10 10 10 10 12 12 11 12 12 11 10 9 9 8 6 6 6 6 6 6 7 8 8 11 14 12 11 12 12 12 13 14 15 16 16 15 14 14 14 15 14 15 16 17 17 17 17 18 18 18 17 16
7 7 7 7 7 8 7 7 6 6 6 7 7 7 7 7 7 7 6 6 7 7 7 7 7 7 7 8 8 8 9 9 9 10 10 10 10 11 12 12 12 13 12 11 9 8 7 6 6 6 5 5 6 8 9 8 10 13 11 10 11 13 13 13 15 16 17 17 16 15 14 14 15 15 16 16 17 18 18 19 20 20 18 18 16
7 7 8 8 8 8 8 7 7 6 6 6 6 6 7 7 7 7 6 6 7 7 7 7 7 7 8 8 9 9 9 9 9 10 10 10 10 11 11 12 13 14 13 13 10 8 8 7 7 6 5 7 7 8 10 9 10 14 12 9 10 14 15 14 13 15 15 15 16 15 15 15 16 16 17 17 18 19 20 20 20 19 18 17 16
7 7 7 8 8 8 8 7 7 7 6 6 6 6 7 7 7 7 7 6 7 8 7 7 7 8 8 9 9 9 9 9 9 10 10 10 10 11 11 11 13 14 14 13 11 9 8 8 8 6 6 9 9 9 10 8 10 14 12 9 9 12 15 15 14 14 14 14 15 15 16 16 17 18 18 18 19 20 20 19 18 18 17 17 16
7 7 7 8 8 8 8 7 8 8 7 7 6 7 8 7 7 8 7 7 8 9 8 7 8 8 8 9 9 9 11 11 11 11 10 10 10 11 11 11 11 13 15 15 14 12 10 9 9 8 8 10 10 9 9 9 12 14 11 9 9 10 15 17 15 14 14 14 15 15 16 17 18 19 19 19 19 19 18 17 17 16 16 16 16
8 7 7 8 8 9 9 9 8 8 8 7 7 8 8 7 7 8 8 8 8 9 9 9 8 8 9 9 10 10 13 14 13 12 12 12 11 11 12 12 12 13 14 16 15 13 12 11 10 10 10 10 10 9 8 9 14 16 12 10 10 12 16 17 16 15 15 15 16 16 17 17 18 18 19 19 19 18 18 17 16 15 15 16 16
9 9 8 8 8 9 9 9 8 9 8 7 8 9 8 7 7 8 8 8 9 9 9 9 8 9 11 11 12 12 13 14 13 13 14 14 13 13 12 12 13 14 15 16 17 15 13 13 13 12 11 11 10 10 9 9 13 17 15 11 12 15 15 15 16 17 17 17 17 18 18 18 19 19 19 19 19 19 18 18 17 16 16 16 16
9 10 9 9 9 9 9 9 8 8 8 8 7 8 9 9 8 8 8 9 10 10 10 9 10 12 13 13 14 14 14 14 14 14 14 15 16 15 14 14 15 15 15 15 17 17 14 13 14 13 12 11 10 10 10 10 12 16 16 13 13 15 12 12 16 18 19 19 18 18 19 19 19 20 20 20 20 19 19 18 17 17 17 17 17
10 10 10 10 10 10 10 10 9 9 10 11 11 9 9 11 10 9 9 10 11 11 11 12 12 12 13 13 14 15 14 14 15 15 15 15 14 15 15 15 15 14 14 14 16 17 15 12 12 12 11 11 11 10 11 11 11 13 14 12 12 12 10 11 15 17 19 20 19 18 19 19 20 20 20 20 20 20 19 18 18 17 18 18 18
11 11 11 11 11 10 10 10 10 10 10 12 12 10 10 11 10 8 9 10 11 12 12 15 14 12 13 14 13 14 15 16 16 16 15 14 13 13 15 16 15 14 14 13 14 15 15 14 13 12 10 10 11 11 11 11 11 12 12 11 11 11 10 10 12 15 19 20 19 19 19 19 20 20 20 21 21 20 20 19 18 17 18 18 19
12 12 11 11 11 11 11 10 11 12 13 13 13 11 11 11 10 10 12 12 13 15 15 16 16 14 14 15 15 15 16 17 18 17 16 16 15 14 15 16 18 17 15 13 14 14 14 15 15 12 11 11 11 11 11 11 11 11 11 11 11 10 10 10 10 13 17 19 18 18 17 18 18 19 19 19 20 20 20 19 18 17 17 17 18
12 12 12 11 12 12 11 11 11 13 14 15 14 12 11 11 12 13 14 14 14 15 15 17 16 14 13 14 15 15 16 17 18 18 18 17 16 16 16 17 18 19 16 13 13 13 14 15 14 12 12 12 11 10 10 11 10 11 11 11 11 10 10 11 10 11 15 17 16 15 15 16 16 17 18 18 19 19 19 20 19 19 18 18 18
13 13 13 12 12 12 12 11 11 11 12 12 12 11 10 10 13 14 13 13 13 13 14 16 15 14 13 14 14 14 15 17 18 19 18 17 17 17 17 16 17 18 16 13 13 13 14 14 13 12 11 10 11 10 9 10 11 11 11 11 10 10 11 12 11 11 13 12 12 13 13 14 15 16 16 17 18 18 19 19 19 19 20 20 20
14 14 13 13 12 12 11 11 10 10 10 10 10 11 10 11 13 14 12 12 13 14 15 16 15 15 15 15 14 15 16 16 17 19 19 19 20 19 17 16 15 15 15 13 12 12 12 12 12 13 12 12 13 13 11 12 12 11 11 12 11 11 12 12 11 11 11 9 11 13 13 13 15 16 16 16 16 17 17 18 18 19 20 20 20
14 14 14 13 13 12 12 12 12 13 13 11 11 12 12 12 13 13 12 11 11 11 13 15 15 15 15 15 16 17 18 18 19 20 20 21 21 19 16 14 13 13 13 12 12 12 13 13 12 12 12 12 14 14 13 14 14 12 12 13 13 12 13 14 14 14 14 12 11 14 16 14 13 14 15 16 17 17 18 18 18 18 19 20 20
14 14 13 13 12 12 11 12 15 16 15 14 14 14 14 14 14 13 13 11 9 9 12 14 14 16 17 17 17 18 20 21 21 20 19 18 18 16 13 12 14 13 12 13 13 13 12 11 11 11 11 9 10 11 12 14 14 13 13 13 13 13 12 14 16 15 15 14 13 14 17 16 15 14 14 15 17 18 18 17 17 18 17 18 19
15 14 13 13 12 11 11 14 16 17 16 16 16 15 16 16 15 14 14 14 13 13 15 15 16 17 17 17 18 20 21 21 20 18 17 17 17 16 14 13 15 14 13 12 12 11 9 8 9 10 9 8 9 9 11 12 13 13 13 11 11 12 10 11 14 14 15 15 13 14 17 18 17 14 12 12 14 16 17 16 16 17 17 18 18
18 16 15 14 12 11 11 14 16 17 17 17 17 17 18 18 17 17 17 16 16 17 15 15 17 17 16 16 19 21 20 19 18 18 18 18 19 17 15 14 13 12 11 9 8 7 6 4 4 5 6 6 8 9 9 10 11 11 11 11 10 11 11 11 12 14 15 15 13 13 16 18 16 13 11 11 12 14 16 17 18 18 17 17 17
18 17 16 15 14 13 13 14 15 17 17 17 17 18 19 19 20 18 14 14 16 17 14 13 14 15 16 18 19 18 17 17 17 16 14 13 13 13 15 15 13 11 9 6 5 5 4 3 4 4 5 6 7 8 8 9 9 8 9 10 10 10 11 11 12 14 17 18 15 12 14 17 16 12 11 12 11 13 17 19 19 18 16 16 16
17 17 16 15 16 16 15 16 16 16 16 17 18 19 18 18 18 14 11 13 14 13 11 10 11 13 15 16 17 16 14 14 14 12 10 8 7 7 8 8 7 6 5 4 4 4 3 3 4 5 5 6 7 8 10 11 10 8 8 9 9 10 11 10 10 14 18 18 15 11 11 15 16 13 12 11 10 15 19 19 18 18 16 17 18
17 16 16 15 16 15 15 16 15 15 15 16 16 16 15 15 15 12 11 12 12 10 10 11 12 13 13 12 12 13 12 11 10 7 7 8 8 6 5 5 3 2 3 3 3 3 4 5 6 6 6 8 9 10 12 12 11 10 10 9 8 9 10 10 11 15 17 17 16 12 10 14 15 13 13 12 10 16 20 19 18 18 16 17 18
16 15 14 15 15 15 14 14 13 13 14 13 13 13 13 13 13 12 12 12 11 11 12 12 13 13 11 8 7 7 6 4 3 3 6 7 6 4 5 5 5 5 5 5 6 6 7 8 8 7 8 10 11 12 12 12 11 11 11 11 10 9 10 10 11 14 16 17 16 12 10 14 16 14 14 13 11 15 19 19 19 18 17 16 16
17 15 14 14 14 13 12 12 11 11 11 11 12 12 13 13 14 14 13 12 12 11 10 10 8 6 4 3 3 2 4 6 5 2 3 3 2 1 2 3 4 5 6 9 10 10 10 10 10 10 11 11 12 12 12 12 11 10 9 10 10 11 11 11 10 12 14 16 16 14 11 14 17 16 15 14 12 13 17 19 20 19 17 16 14
17 16 15 14 14 12 11 10 10 9 9 10 10 10 11 12 12 11 11 9 8 6 3 1 3 5 5 4 5 7 8 9 9 6 5 4 5 5 6 7 8 8 10 12 12 12 12 12 12 12 12 11 11 11 11 12 12 11 8 7 8 11 12 12 11 11 13 16 17 16 13 14 17 17 17 16 13 12 13 18 21 20 17 15 14
17 16 15 14 13 11 10 9 8 8 7 6 5 4 4 4 4 6 6 4 4 6 10 12 13 12 11 10 12 13 14 14 14 13 11 10 11 11 11 11 11 12 14 15 14 13 14 13 13 12 10 9 10 10 10 11 11 11 10 9 10 11 11 12 12 12 12 15 18 18 16 13 16 18 18 18 15 11 11 15 19 20 18 16 14
16 15 15 14 11 8 7 7 6 6 4 1 2 5 7 7 6 7 8 11 14 16 18 19 19 18 18 17 16 17 17 16 15 15 13 12 12 12 12 12 12 14 15 15 13 13 12 11 10 10 9 9 9 10 10 11 10 11 11 11 12 12 11 12 13 13 12 12 17 20 20 17 16 17 19 20 15 10 10 14 16 17 16 16 15
16 16 15 12 9 7 6 6 4 3 5 8 10 11 12 11 11 12 15 18 20 21 21 22 22 22 21 20 18 17 17 15 14 14 13 12 12 12 12 12 13 14 13 11 10 9 8 8 8 8 8 9 10 11 12 13 13 13 14 14 14 13 12 12 13 14 13 12 17 22 23 21 18 16 18 19 16 14 13 14 14 14 13 14 13
Wind_Direction
123 119 119 121 115 107 101 99 97 92 86 79 76 70 68 60 53 50 42 44 51 51 58 66 60 63 73 70 65 62 70 79 83 89 95 104 103 104 106 104 104 106 108 113 117 120 121 120 120 120 120 119 118 117 119 119 116 107 96 87 74 60 40 20 4 356 349 344 340 336 332 331 331 331 332 334 336 338 339 339 337 334 331 328 325
132 127 123 118 109 104 101 102 97 92 89 82 77 69 67 59 48 44 39 45 52 54 60 72 76 76 75 75 79 73 75 81 83 84 90 101 104 104 103 102 102 104 109 115 119 119 118 119 119 120 120 121 122 120 121 117 108 96 82 68 52 35 19 7 357 350 345 341 338 335 334 333 333 333 335 337 340 341 340 338 335 332 329 326 324
139 127 119 112 104 101 101 102 97 91 86 78 75 69 66 58 51 51 47 46 50 54 64 76 79 79 77 78 82 83 87 85 83 83 86 97 102 99 97 99 101 104 110 114 115 116 117 120 120 122 124 123 123 121 118 109 94 78 57 41 27 17 7 358 350 344 340 338 335 335 336 336 335 335 337 340 342 342 340 337 334 331 328 326 325
142 130 120 111 106 105 104 101 95 87 78 72 70 69 62 53 53 53 48 48 50 54 66 78 81 82 81 80 82 82 87 88 89 93 91 86 87 91 92 95 101 106 112 116 115 116 119 122 121 120 122 119 118 114 105 90 72 51 32 20 11 3 356 349 343 339 335 333 331 332 335 335 335 336 338 342 343 342 340 336 333 332 331 330 328
147 138 123 114 113 111 108 102 93 82 73 70 62 60 60 52 50 48 45 48 52 59 72 83 84 85 85 83 84 83 84 84 86 88 84 75 72 79 85 92 104 111 117 120 118 117 121 125 121 111 107 101 97 83 61 43 25 13 6 359 354 348 344 340 336 332 329 328 328 328 330 333 334 336 339 343 344 342 339 335 335 335 335 334 332
155 146 128 119 119 115 111 104 96 79 65 72 62 52 54 51 48 48 49 49 55 65 74 87 88 88 91 88 86 85 85 85 86 84 81 78 73 74 79 84 99 114 122 124 120 118 124 130 129 119 103 88 67 38 22 11 356 346 342 338 337 335 334 333 331 328 327 328 329 328 328 329 332 336 340 343 344 341 338 338 340 342 341 339 335
161 154 133 122 125 122 118 127 122 81 53 71 65 52 47 44 46 47 46 47 55 68 76 86 93 94 92 93 94 92 92 93 91 84 78 76 71 70 74 78 84 100 117 123 119 114 120 140 155 163 159 19 336 339 336 333 328 325 325 324 325 327 328 329 327 327 328 330 331 330 328 328 333 336 340 345 344 341 341 343 346 347 346 343 340
169 165 141 122 130 124 124 179 162 92 62 69 51 47 44 36 40 42 42 44 48 64 76 86 100 99 95 98 101 98 103 103 94 93 90 73 63 59 63 69 72 79 95 109 119 113 119 158 187 213 248 275 292 298 298 302 305 307 311 313 317 319 321 322 322 324 327 330 332 333 331 331 334 337 342 347 345 345 347 349 350 351 351 349 347
179 176 156 132 133 117 117 202 197 209 230 85 40 37 39 28 27 32 37 39 39 52 64 77 109 111 98 96 97 98 111 115 109 120 85 49 51 38 36 44 47 50 52 42 12 302 281 245 244 256 274 287 291 296 296 297 299 302 303 306 308 309 312 314 315 319 324 329 333 335 332 333 336 339 346 349 348 352 354 354 354 355 355 355 354
189 189 179 158 145 133 132 203 221 248 255 283 288 283 34 31 18 10 27 34 31 38 45 47 86 125 105 93 86 87 105 112 92 78 344 1 20 3 343 350 1 7 6 358 344 318 299 283 277 277 281 288 293 296 297 298 298 300 301 302 302 303 306 308 311 316 322 327 333 334 331 333 338 342 349 352 355 359 359 358 358 358 358 359 359
196 200 197 185 166 192 226 231 247 254 254 296 281 261 249 29 18 353 5 17 18 25 29 29 37 133 99 83 72 62 98 93 331 328 278 272 317 334 324 323 338 344 339 334 328 315 302 294 289 289 289 287 289 292 294 297 297 299 299 299 299 299 302 303 308 315 320 324 330 331 330 334 341 345 350 356 2 5 4 3 2 1 0 1 1
199 205 207 204 191 203 229 224 232 250 232 213 240 242 235 237 259 284 351 357 358 5 3 6 358 236 284 255 223 343 310 315 272 255 254 253 269 298 311 307 311 324 319 308 301 290 288 294 290 287 288 287 288 290 293 296 298 300 301 301 301 300 299 300 306 313 316 319 325 329 330 335 343 346 350 359 5 5 5 6 5 4 2 2 2
201 204 206 206 200 199 214 211 208 235 227 226 229 219 215 235 254 259 321 332 332 339 337 346 306 250 259 261 246 249 281 298 262 249 254 251 259 278 298 300 295 316 321 305 296 285 284 297 298 290 285 285 288 290 292 296 299 304 306 309 308 303 299 299 303 307 308 314 321 326 327 333 343 343 349 359 2 0 2 5 7 6 3 3 3
200 199 196 195 197 193 197 203 203 215 223 236 237 223 219 236 262 266 290 299 296 301 308 328 303 280 279 279 263 240 260 285 264 256 258 257 264 269 280 295 298 311 319 315 314 303 288 293 300 298 289 285 289 293 297 302 305 309 310 312 310 303 297 297 300 300 302 309 316 320 319 327 338 336 342 353 355 356 359 3 7 7 5 3 3
200 197 196 197 198 190 182 195 203 201 206 217 228 244 248 253 265 259 260 276 274 280 290 298 318 315 291 280 282 267 268 274 265 264 268 265 266 272 281 294 302 311 311 303 304 306 296 290 295 299 296 293 295 298 304 308 310 311 309 309 306 301 297 296 298 299 300 306 311 312 310 318 330 328 334 344 349 352 356 1 6 7 6 4 3
204 204 207 211 205 196 187 191 208 205 205 216 213 242 254 261 269 257 247 254 265 285 293 290 314 325 308 294 295 284 275 286 291 284 275 269 267 277 289 294 299 307 308 300 297 301 300 298 301 305 304 302 301 303 308 310 309 309 309 307 303 300 298 298 300 299 299 304 308 307 303 313 326 324 328 338 344 349 353 359 4 6 6 5 4
213 217 219 220 212 207 201 193 214 220 214 221 219 223 238 242 254 264 264 251 252 283 293 291 301 311 320 314 305 298 309 322 316 302 285 281 279 282 289 295 298 302 304 299 300 301 297 298 305 309 309 307 306 307 313 311 307 310 313 312 307 303 302 302 303 300 299 303 306 306 306 317 327 324 325 332 338 344 349 356 2 5 5 5 5
220 224 220 218 213 209 206 204 225 238 233 230 228 231 234 234 244 258 285 261 252 268 278 279 291 296 305 312 304 307 320 321 313 308 300 292 289 287 287 290 295 300 301 300 303 302 301 304 306 308 307 308 311 311 314 310 306 308 312 313 312 308 305 305 305 301 300 302 305 309 313 321 326 322 321 326 332 339 345 352 358 1 2 2 3
216 224 216 214 212 209 212 215 222 248 251 243 233 230 217 223 239 230 228 260 262 246 251 258 279 288 282 282 291 297 306 307 305 308 308 300 297 293 289 289 296 299 295 300 307 304 306 307 307 309 305 305 311 313 315 311 306 308 309 313 316 312 308 307 306 300 294 294 297 304 310 314 319 318 317 322 329 337 343 346 351 355 356 358 359
207 216 217 217 218 215 219 222 221 234 247 249 237 228 223 231 247 250 248 259 261 251 248 252 269 279 273 277 286 290 291 290 289 297 299 300 304 301 295 296 301 300 294 299 305 306 309 305 304 308 303 304 311 314 316 308 308 314 313 316 320 315 311 311 307 299 288 286 290 298 306 310 315 316 316 321 328 336 341 342 344 346 347 350 353
215 216 219 221 222 221 225 227 228 237 245 245 237 233 232 236 245 251 252 255 257 262 264 261 267 275 278 281 280 283 288 286 282 286 290 297 303 302 302 304 304 303 300 300 301 303 303 296 301 304 296 301 310 314 318 312 314 316 304 311 320 313 309 312 308 299 286 284 287 294 301 306 310 312 314 318 323 329 334 337 338 339 340 342 345
226 228 227 224 224 223 227 232 234 241 240 230 230 239 243 243 245 242 241 247 255 263 268 270 269 268 274 279 279 281 285 286 284 286 289 294 297 299 303 305 305 305 302 299 300 301 297 291 296 297 292 301 307 311 316 314 314 308 297 305 314 310 304 305 307 303 293 288 287 291 296 299 302 304 307 311 315 319 325 329 330 332 333 334 337
221 231 232 227 229 228 223 227 234 240 242 235 230 239 242 241 245 244 243 247 253 260 265 271 276 275 276 276 277 280 281 284 287 288 292 295 296 299 301 301 300 299 298 298 299 300 294 290 293 292 294 300 298 300 314 318 313 312 311 308 308 307 302 300 303 304 301 298 294 293 295 298 299 299 300 303 307 311 316 320 323 325 326 328 330
216 224 226 221 229 234 224 224 234 238 240 236 227 227 224 225 235 241 246 250 254 264 270 274 279 281 283 280 279 282 282 284 287 288 292 294 295 297 298 301 299 296 298 299 299 300 294 290 293 293 297 300 294 295 312 322 307 306 314 313 309 307 301 296 297 300 304 306 303 299 297 299 301 300 299 300 304 307 311 315 318 320 320 321 323
220 223 225 222 229 238 232 227 235 239 237 235 231 230 226 228 237 238 244 257 262 268 276 282 284 282 286 286 285 287 288 289 290 291 294 294 294 295 299 304 302 301 303 300 299 301 296 292 293 295 299 300 297 296 307 317 301 298 310 318 316 310 302 296 293 295 300 303 305 304 301 300 301 301 301 302 304 306 308 311 315 317 316 315 317
218 220 221 219 222 234 238 234 240 246 245 244 241 239 236 236 242 241 244 259 268 273 281 288 290 289 289 288 290 292 292 294 294 294 295 295 295 297 302 306 304 305 305 301 301 301 300 300 295 299 301 294 300 301 304 312 301 299 313 323 315 308 306 303 297 296 298 299 301 302 301 301 301 302 303 304 304 304 305 309 312 313 311 310 310
214 217 219 215 212 225 236 238 245 250 249 247 245 245 246 244 245 245 246 259 272 278 278 281 284 284 285 286 288 289 290 293 294 294 294 294 295 298 303 305 304 305 304 302 304 302 304 306 299 303 300 298 310 306 307 317 302 302 320 329 313 307 310 313 306 300 299 297 298 298 299 300 300 302 303 303 304 304 305 307 309 309 307 305 305
213 217 221 218 214 222 232 239 248 252 249 245 239 238 244 246 249 253 253 259 271 275 274 276 278 279 281 281 281 284 284 284 285 289 290 293 297 299 301 302 302 302 303 304 305 304 307 306 302 301 294 302 316 311 313 317 296 303 323 325 313 309 311 315 313 307 304 300 298 299 299 300 300 302 303 303 305 305 306 308 307 306 304 301 301
218 220 221 222 222 224 224 229 242 250 250 251 248 244 245 247 255 264 263 257 260 267 271 271 271 276 280 278 279 280 275 275 283 290 290 292 298 300 299 297 295 296 299 303 303 303 306 305 302 301 297 307 317 314 316 310 296 308 325 319 314 306 302 310 312 309 310 307 306 305 304 304 304 304 304 304 305 306 308 309 308 306 302 299 298
217 214 213 220 229 234 230 224 229 239 244 247 249 248 248 251 259 266 271 271 269 271 273 272 275 279 277 272 271 271 273 281 293 296 290 286 289 291 291 289 287 287 291 295 296 297 302 302 300 301 302 306 310 308 312 306 298 306 316 314 308 300 303 311 312 310 313 312 311 311 308 308 307 305 306 304 305 306 306 307 307 305 301 298 296
219 216 214 218 227 237 240 235 233 240 246 247 248 249 248 250 257 265 274 281 282 281 275 273 274 269 264 267 272 277 284 290 294 292 288 284 281 278 279 283 282 281 282 285 287 292 298 300 299 301 302 303 306 305 307 305 298 301 310 313 304 305 315 317 312 312 313 312 312 312 310 310 308 308 307 306 306 305 305 305 304 302 299 296 295
220 222 222 224 226 230 235 234 233 236 239 236 235 243 248 247 249 255 259 264 272 279 276 264 254 254 264 278 286 289 290 288 285 284 284 283 282 280 281 283 282 279 278 278 283 289 293 296 300 304 306 306 307 307 307 310 307 307 313 315 310 315 322 314 310 311 311 312 313 311 310 310 309 308 307 306 306 305 304 303 301 299 296 293 292
219 222 225 228 230 231 232 232 231 232 235 233 228 229 243 250 251 257 263 266 270 275 275 268 261 263 276 287 289 284 282 279 278 280 284 286 287 287 287 285 281 280 279 277 282 289 293 294 292 293 302 307 307 309 310 311 311 308 312 315 313 316 316 309 309 309 309 311 312 311 310 309 308 308 306 305 305 304 303 302 300 297 293 290 290
222 223 225 228 229 231 232 234 235 235 239 243 241 236 241 249 253 260 265 266 271 275 276 277 283 289 287 286 284 278 276 277 278 281 284 285 283 283 283 282 279 278 280 279 281 288 293 293 289 289 298 302 303 309 311 311 311 310 313 318 316 313 311 309 310 307 304 305 308 310 309 306 305 304 303 303 302 301 301 300 299 296 291 289 288
224 224 225 225 227 228 228 232 237 238 239 243 244 239 239 245 249 254 255 255 264 273 272 274 286 296 289 283 283 280 278 279 280 281 280 278 276 274 275 277 277 276 277 278 280 284 291 298 301 303 304 302 303 308 311 313 312 312 315 318 318 316 310 309 313 306 300 301 305 306 303 301 301 300 300 299 298 298 298 297 296 294 292 290 289
225 225 225 224 226 231 232 235 242 246 245 247 248 245 242 247 253 258 264 270 275 277 273 272 282 293 291 282 278 280 285 283 279 277 276 275 274 273 272 274 278 280 279 276 278 283 291 299 305 308 308 308 309 312 316 318 315 315 316 318 320 320 312 314 319 310 305 310 314 311 307 306 304 302 301 298 297 296 295 296 295 294 292 290 289
227 226 227 227 230 236 239 241 247 252 254 257 262 263 258 257 262 265 272 280 282 279 277 277 282 291 293 288 284 286 291 290 285 282 281 279 277 276 274 272 278 285 286 284 285 289 297 303 305 307 305 301 299 304 310 310 311 315 315 316 320 316 313 320 324 315 314 324 330 324 318 315 314 314 310 305 302 299 296 294 294 293 292 289 288
228 227 229 231 234 238 241 244 246 247 251 258 266 270 265 264 271 276 278 280 280 281 282 284 290 296 297 296 294 294 296 296 292 289 286 284 281 278 277 277 278 283 287 290 293 298 307 305 299 302 305 299 300 306 306 304 312 318 313 316 319 316 320 324 320 312 308 319 334 324 314 316 319 317 314 312 309 306 302 298 295 293 291 289 288
231 229 231 233 237 241 243 245 244 242 245 254 262 268 270 270 274 279 284 287 285 282 281 284 291 296 296 295 294 293 293 292 291 288 287 286 283 280 282 280 273 272 276 278 282 294 304 300 296 304 311 310 308 309 306 305 311 314 315 323 324 324 330 323 311 308 305 313 332 320 309 317 323 320 320 321 317 308 303 301 298 295 293 292 291
230 231 233 237 239 240 239 240 245 246 247 254 262 269 273 274 275 276 279 282 281 275 274 278 282 284 288 292 293 290 287 286 288 288 284 281 279 278 279 273 271 275 277 275 279 292 300 303 306 303 300 301 302 305 311 314 318 321 325 332 331 332 337 323 313 316 316 322 331 320 317 327 332 331 330 328 325 315 308 307 306 303 301 298 295
230 231 232 234 236 237 239 245 251 252 251 255 263 271 274 273 273 274 275 277 278 277 276 278 280 283 289 293 291 287 284 285 288 283 274 271 274 275 274 272 275 280 283 286 292 299 307 317 319 313 313 311 306 318 334 336 338 339 337 340 339 332 328 318 313 315 320 331 335 326 327 336 340 340 335 333 333 322 319 324 320 314 313 307 302
236 235 233 232 234 236 241 251 256 255 254 257 264 271 274 272 269 273 279 282 280 277 276 277 279 284 292 293 290 289 288 288 287 280 273 272 274 275 274 272 272 271 275 289 299 302 309 313 309 332 3 358 340 346 351 345 345 345 341 346 345 328 319 321 321 321 331 345 352 343 337 343 352 354 342 343 339 323 327 340 338 331 329 321 314
238 237 235 233 232 230 232 243 254 256 256 259 264 270 272 271 271 274 280 280 278 278 279 279 280 286 292 293 294 297 297 294 289 284 283 281 272 263 259 257 257 260 265 275 284 289 293 279 281 316 347 359 359 358 354 351 355 355 351 350 342 330 336 346 345 344 350 357 3 0 348 351 6 8 350 348 342 330 341 353 349 345 343 338 334
232 231 230 228 229 231 233 239 247 253 255 257 262 267 270 272 274 276 273 272 275 277 277 277 283 289 293 296 301 304 303 301 295 288 286 285 265 245 248 251 247 257 271 275 279 287 302 317 330 335 336 352 6 6 6 9 11 13 11 1 348 344 354 2 359 358 0 2 8 12 355 356 10 10 355 355 348 341 351 358 355 352 353 354 354
226 225 225 226 230 234 236 239 244 250 256 260 264 268 270 272 275 274 269 271 274 275 275 278 284 289 292 298 308 311 308 307 303 284 261 257 253 262 311 340 5 5 350 351 346 346 355 359 4 10 12 18 23 22 18 17 20 25 24 15 2 352 352 359 5 5 6 7 8 10 359 359 7 6 358 359 348 342 352 2 0 357 360 3 4
221 218 220 225 229 232 236 240 245 250 256 263 269 273 275 277 277 274 269 270 273 276 278 279 282 287 291 298 312 321 324 326 313 248 224 229 241 271 323 348 8 14 20 33 33 30 31 33 37 41 39 35 33 29 24 22 25 28 24 19 18 12 2 0 359 359 4 7 8 8 1 359 3 2 358 357 343 339 352 4 5 360 1 6 7
219 219 221 224 227 229 233 238 244 249 258 268 274 278 278 276 273 270 268 269 272 273 273 276 285 301 314 322 344 32 83 93 99 145 202 215 236 306 0 27 36 43 56 58 53 51 48 46 47 46 43 40 35 30 26 22 20 24 23 15 12 11 6 359 351 348 350 357 7 14 5 354 358 359 355 353 343 337 348 357 1 1 1 2 3
219 224 227 225 223 224 230 237 245 253 265 274 276 273 268 264 262 261 260 262 265 264 255 159 84 78 73 71 85 99 105 105 103 103 101 97 95 91 84 81 78 77 74 66 59 55 50 45 43 41 39 34 28 22 17 13 10 11 13 6 4 4 356 349 350 348 341 341 356 13 8 347 348 353 352 352 346 337 341 347 351 358 1 1 1
215 221 225 225 220 218 227 237 245 255 266 276 274 260 245 239 233 231 228 208 166 130 114 109 105 102 102 105 108 107 103 99 97 95 93 91 90 87 84 84 82 76 68 60 52 46 41 37 35 34 30 21 15 9 3 1 359 358 1 5 10 8 357 350 349 347 343 333 338 359 6 345 340 344 344 347 347 336 335 340 343 349 353 356 360
209 211 215 220 218 211 220 233 243 253 261 244 114 111 110 114 126 139 138 126 120 117 115 112 110 107 104 103 103 101 97 96 95 93 90 86 84 81 78 78 75 70 64 55 46 43 40 33 26 22 13 4 359 355 352 353 353 358 6 11 12 8 360 357 347 341 347 333 324 343 354 345 339 340 337 343 346 334 331 337 338 342 343 344 350
202 204 205 208 205 195 198 200 188 160 123 114 112 108 104 105 110 117 120 119 117 116 114 112 108 105 102 98 95 95 95 96 95 93 89 84 82 82 79 74 71 68 64 55 48 49 46 34 17 3 354 350 351 351 352 353 353 358 4 7 10 7 359 356 347 341 346 332 319 333 344 341 341 339 335 338 336 325 328 333 332 335 335 334 340